Location: Montclair
(37.8322°N, 122.2092°W)
Time: 11:56:39
(UTC+00:00)

Nadezhda 3 Rocket - Pass Details

Date: 08 September 2024
Orbit: 956 x 998 km, 82.9° (Epoch: 11 October)

Event Time Altitude Azimuth Distance (km) Brightness Sun altitude
Exits shadow 12:32:45 16° 222° (SW) 2,268 5.4 -14.8°
Maximum altitude 12:37:08 38° 283° (WNW) 1,433 4.5 -13.9°
Drops below altitude 10° 12:42:55 10° 351° (N) 2,732 6.5 -12.9°
Sets 12:45:39 0° 359° (N) 3,690 7.2 -12.3°
